Location: Derby
(52.9213°N, 1.4761°W)
Time: 16:47:56
(UTC+01:00)

Vanguard 1 - Pass Details

Date: 26 May 2025
Orbit: 649 x 3822 km, 34.3° (Epoch: 14 June)

Event Time Altitude Azimuth Distance (km) Brightness Sun altitude
Rises 22:41:28 0° 269° (W) 6,252 14.7 -9.7°
Reaches altitude 10° 22:50:40 10° 239° (WSW) 4,220 13.3 -10.4°
Maximum altitude 22:52:41 11° 228° (SW) 3,929 13.0 -10.6°
Drops below altitude 10° 22:54:31 10° 217° (SW) 3,757 12.8 -10.7°
Enters shadow 22:58:52 - 189° (S) 3,818 12.6 -11.0°
Sets 23:00:27 0° 181° (S) 4,009 - -11.2°
